RYR3289 EDJA-EVRA

Flight info

Callsign RYR3289
Flight time N/A
Altitude 37000
Route KPT Z999 BEMKI L607 XEBIX N871 BEPAS DCT VLM DCT ELVOT DCT VAGSA DCT UVIVI DCT SORIX DCT BOKSU DCT INBOV DCT GUNTA
Aircraft B738/M-SDE3FGILRWY/SB1

Departure

Time N/A
Airport Memmingen Allgau Airport (EDJA)

Arrival

Time 2026-04-30 18:45
Airport Riga International Airport (EVRA)
Time Latitude Longitude Altitude Speed Heading
2026-04-30 17:39 52.20860 18.95007 37389 ft 391 kts 45°
2026-04-30 17:42 52.39278 19.27586 37375 ft 391 kts 45°
2026-04-30 17:43 52.48461 19.43992 37372 ft 390 kts 45°
2026-04-30 17:44 52.59441 19.63752 37373 ft 390 kts 45°
2026-04-30 17:47 52.75725 19.93697 37370 ft 390 kts 46°
2026-04-30 17:48 52.88163 20.17379 37372 ft 390 kts 46°
2026-04-30 17:50 53.02335 20.44591 37359 ft 390 kts 46°
2026-04-30 17:52 53.12915 20.65102 37368 ft 391 kts 46°
2026-04-30 17:54 53.28801 20.96222 37368 ft 392 kts 47°
2026-04-30 17:56 53.42862 21.24094 37355 ft 391 kts 47°
2026-04-30 17:58 53.53339 21.45067 37348 ft 390 kts 47°
2026-04-30 18:00 53.67245 21.73182 37346 ft 391 kts 47°
2026-04-30 18:01 53.75921 21.90886 37378 ft 392 kts 47°
2026-04-30 18:02 53.86283 22.12199 37340 ft 391 kts 47°
2026-04-30 18:04 53.96612 22.33625 37342 ft 391 kts 47°
2026-04-30 18:06 54.10312 22.62333 37344 ft 391 kts 48°
2026-04-30 18:08 54.22253 22.87631 37366 ft 392 kts 48°
2026-04-30 18:09 54.29212 23.01854 37331 ft 388 kts 37°
2026-04-30 18:10 54.39117 23.08591 37331 ft 390 kts 12°
2026-04-30 18:11 54.57813 23.14120 37326 ft 389 kts 13°
2026-04-30 18:13 54.71129 23.18206 37335 ft 389 kts 13°
2026-04-30 18:14 54.84441 23.22319 37335 ft 389 kts 13°
2026-04-30 18:15 55.00308 23.27253 36881 ft 377 kts 13°
2026-04-30 18:16 55.05406 23.28846 35786 ft 369 kts 13°
2026-04-30 18:16 55.10424 23.30420 34625 ft 363 kts 14°
2026-04-30 18:17 55.12901 23.31199 33949 ft 361 kts 14°
2026-04-30 18:17 55.15360 23.31974 33314 ft 357 kts 14°
2026-04-30 18:17 55.20186 23.33494 32257 ft 346 kts 14°
2026-04-30 18:18 55.22532 23.34234 31825 ft 338 kts 14°
2026-04-30 18:18 55.24823 23.34957 31381 ft 332 kts 14°
2026-04-30 18:18 55.27101 23.35681 30961 ft 337 kts 14°
2026-04-30 18:18 55.29439 23.36428 30514 ft 343 kts 14°
2026-04-30 18:19 55.31764 23.37166 30012 ft 337 kts 14°
2026-04-30 18:19 55.34044 23.37888 29563 ft 329 kts 14°
2026-04-30 18:19 55.36273 23.38596 29117 ft 322 kts 14°
2026-04-30 18:19 55.38458 23.39291 28681 ft 316 kts 14°
2026-04-30 18:20 55.40633 23.39986 28256 ft 321 kts 13°
2026-04-30 18:20 55.42883 23.40709 27779 ft 333 kts 13°
2026-04-30 18:20 55.45144 23.41454 27325 ft 327 kts 14°
2026-04-30 18:20 55.47352 23.42238 26859 ft 321 kts 14°
2026-04-30 18:21 55.49526 23.43033 26396 ft 317 kts 14°
2026-04-30 18:21 55.51667 23.43819 25966 ft 312 kts 14°
2026-04-30 18:21 55.53071 23.44336 25681 ft 313 kts 14°
2026-04-30 18:21 55.55998 23.45415 25108 ft 327 kts 14°
2026-04-30 18:22 55.57466 23.45954 24801 ft 324 kts 14°
2026-04-30 18:22 55.61821 23.47546 23910 ft 316 kts 14°
2026-04-30 18:22 55.63965 23.48330 23404 ft 313 kts 14°
2026-04-30 18:23 55.66089 23.49107 22926 ft 311 kts 13°
2026-04-30 18:23 55.68222 23.49890 22490 ft 316 kts 13°
2026-04-30 18:23 55.70385 23.50684 22036 ft 317 kts 13°
2026-04-30 18:23 55.72526 23.51470 21591 ft 312 kts 13°
2026-04-30 18:24 55.76729 23.53014 20734 ft 306 kts 13°
2026-04-30 18:24 55.78806 23.53779 20316 ft 305 kts 13°
2026-04-30 18:24 55.80910 23.54556 19899 ft 312 kts 13°
2026-04-30 18:25 55.83038 23.55343 19461 ft 312 kts 13°
2026-04-30 18:25 55.87235 23.56893 18603 ft 305 kts 13°
2026-04-30 18:25 55.89310 23.57662 18125 ft 305 kts 13°
2026-04-30 18:26 55.93447 23.59197 17253 ft 304 kts 13°
2026-04-30 18:26 55.95520 23.59968 16826 ft 306 kts 13°
2026-04-30 18:26 55.97598 23.60741 16392 ft 302 kts 13°
2026-04-30 18:27 56.01665 23.62256 15570 ft 297 kts 12°
2026-04-30 18:27 56.03687 23.63011 15165 ft 297 kts 12°
2026-04-30 18:28 56.07758 23.64533 14357 ft 301 kts 12°
2026-04-30 18:28 56.09808 23.65301 13916 ft 299 kts 12°
2026-04-30 18:28 56.13825 23.66806 13040 ft 291 kts 12°
2026-04-30 18:29 56.15807 23.67551 12649 ft 290 kts 12°
2026-04-30 18:29 56.21743 23.69785 11467 ft 289 kts 12°
2026-04-30 18:30 56.25643 23.71257 10862 ft 279 kts 12°
2026-04-30 18:30 56.29336 23.72654 10597 ft 264 kts 12°
2026-04-30 18:31 56.31099 23.73321 10485 ft 254 kts 12°
2026-04-30 18:31 56.34421 23.74581 10201 ft 238 kts 12°
2026-04-30 18:32 56.37691 23.75857 9597 ft 242 kts 14°
2026-04-30 18:32 56.39319 23.76665 9249 ft 242 kts 15°
2026-04-30 18:32 56.42559 23.78341 8539 ft 242 kts 15°
2026-04-30 18:33 56.44185 23.79178 8187 ft 243 kts 15°
2026-04-30 18:33 56.47436 23.80841 7480 ft 243 kts 15°
2026-04-30 18:33 56.49067 23.81672 7127 ft 244 kts 14°
2026-04-30 18:34 56.50701 23.82505 6766 ft 245 kts 14°
2026-04-30 18:34 56.53942 23.84172 6088 ft 235 kts 14°
2026-04-30 18:34 56.55485 23.84990 5745 ft 227 kts 14°
2026-04-30 18:35 56.56965 23.85777 5429 ft 217 kts 14°
2026-04-30 18:35 56.58384 23.86532 5160 ft 207 kts 14°
2026-04-30 18:35 56.59733 23.87249 4898 ft 197 kts 14°
2026-04-30 18:36 56.62292 23.88608 4438 ft 190 kts 14°
2026-04-30 18:36 56.63571 23.89287 4237 ft 192 kts 13°
2026-04-30 18:36 56.66120 23.90641 3909 ft 190 kts 14°
2026-04-30 18:37 56.67387 23.91316 3734 ft 190 kts 14°
2026-04-30 18:37 56.68655 23.91992 3567 ft 189 kts 14°
2026-04-30 18:37 56.69914 23.92662 3391 ft 186 kts 14°
2026-04-30 18:37 56.71126 23.93311 3233 ft 179 kts 14°
2026-04-30 18:38 56.72320 23.93872 3054 ft 178 kts
2026-04-30 18:38 56.73550 23.94054 2894 ft 178 kts
2026-04-30 18:38 56.74784 23.94241 2747 ft 176 kts
2026-04-30 18:38 56.75946 23.94428 2600 ft 160 kts
2026-04-30 18:39 56.77031 23.94605 2496 ft 155 kts
2026-04-30 18:39 56.78098 23.94778 2360 ft 154 kts
2026-04-30 18:39 56.79169 23.94954 2231 ft 154 kts
2026-04-30 18:39 56.80239 23.95129 2106 ft 154 kts
2026-04-30 18:40 56.81304 23.95299 1943 ft 153 kts
2026-04-30 18:40 56.82331 23.95466 1729 ft 143 kts
2026-04-30 18:40 56.83306 23.95626 1531 ft 138 kts
2026-04-30 18:40 56.84252 23.95782 1346 ft 136 kts
2026-04-30 18:41 56.85202 23.95938 1168 ft 138 kts
2026-04-30 18:41 56.86157 23.96095 969 ft 138 kts
2026-04-30 18:41 56.87102 23.96252 776 ft 139 kts
2026-04-30 18:41 56.88072 23.96413 567 ft 141 kts
2026-04-30 18:42 56.89050 23.96570 385 ft 141 kts
2026-04-30 18:42 56.90991 23.96897 52 ft 134 kts
2026-04-30 18:42 56.91779 23.97024 44 ft 85 kts
2026-04-30 18:45 56.92539 23.97547 45 ft 13 kts 189°
2026-04-30 18:45 56.92459 23.97532 43 ft 11 kts 184°
2026-04-30 18:45 56.92391 23.97518 45 ft 8 kts 187°
2026-04-30 18:46 56.92357 23.97588 45 ft 8 kts 96°
2026-04-30 18:46 56.92352 23.97688 45 ft 8 kts 95°
2026-04-30 18:46 56.92347 23.97782 45 ft 5 kts 95°
2026-04-30 18:46 56.92331 23.97834 43 ft 6 kts 167°
2026-04-30 18:47 56.92303 23.97832 45 ft 2 kts 185°
2026-04-30 18:47 56.92291 23.97831 45 ft 1 kts 185°
2026-04-30 18:47 56.92290 23.97830 45 ft 0 kts 185°